[[{"header":{"parameterUnit":"m.s-1","parameterCategory":1,"la1":30.2991,"la2":30.254,"lo1":-89.0895,"lo2":-89.0444,"dy":0.0017,"dx":0.0017,"nx":28,"ny":28,"refTime":"2024-05-15T21:00:00:Z","depth":0,"parameterNumber":2,"parameterNumberName":"U-component_of_WINDS"},"data":[0,0,0,0,0,0,0,0,0,0,0,0,0,0,0,0,0,0,0,0,0,0,0,0,0,0,0,0,0,0,0,0,0,0,0,0,0,0,0,0,0,0,0,0,0,0,0,0,0,0,0,0,0,0,0,0,0,0,-3.4093,-3.4093,0,-3.4083,-3.4082,-3.4082,-3.4021,-3.4019,-3.4018,-3.4016,-3.4006,-3.4007,-3.4008,0,0,0,0,0,0,0,0,0,0,0,0,0,-3.4062,-3.4063,-3.4093,-3.4093,-3.4093,-3.4083,-3.4082,-3.4082,-3.4021,-3.4019,-3.4017,-3.4016,-3.4006,-3.4007,-3.4009,0,0,0,0,0,0,0,0,0,0,0,0,0,-3.4066,-3.4063,-3.4093,-3.4061,-3.4058,-3.4083,-3.4082,-3.4082,-3.4021,-3.4019,-3.4017,-3.4015,-3.4005,-3.4007,-3.4009,-3.4063,0,0,-3.4014,-3.4014,0,0,0,0,0,0,0,0,-3.4066,-3.4067,-3.4066,-3.4063,-3.406,-3.4051,-3.4068,-3.4076,-3.4022,-3.4035,-3.4016,-3.4014,-3.4023,-3.4023,-3.4026,-3.4063,-3.4062,-3.4014,-3.4015,-3.4016,-3.4016,0,0,0,0,0,0,0,-3.4066,-3.4067,-3.4089,-3.4066,-3.4063,-3.4048,-3.4046,-3.4069,-3.4042,-3.4034,-3.403,-3.4029,-3.4021,-3.4024,-3.4025,-3.4062,-3.4014,-3.4015,-3.4016,-3.4017,-3.4143,-3.4146,0,0,0,0,0,0,-3.407,-3.4067,-3.4089,-3.4089,-3.4058,-3.405,-3.4048,-3.4056,-3.4041,-3.4037,-3.4031,-3.4026,-3.4023,-3.4023,-3.4025,-3.4087,-3.4016,-3.4017,-3.4018,-3.4141,-3.4144,-3.4147,0,0,0,0,0,0,-3.4069,-3.4072,-3.409,-3.4077,-3.4078,-3.4053,-3.4063,-3.4057,-3.406,-3.4039,-3.4034,-3.404,-3.4021,-3.4022,-3.4054,-3.4086,-3.4018,-3.4019,-3.4138,-3.4142,-3.4145,-3.4212,0,0,0,0,0,0,-3.4069,-3.4072,-3.4092,-3.4078,-3.4079,-3.4119,-3.4065,-3.4058,-3.4063,-3.4057,-3.4046,-3.4042,-3.4019,-3.4052,-3.4056,-3.4087,-3.4021,-3.4135,-3.414,-3.4144,-3.4207,-3.4218,-3.4227,0,0,0,0,0,-3.4068,-3.4112,-3.4094,-3.4097,-3.4103,-3.4121,-3.4122,-3.4095,-3.4066,-3.4086,-3.4073,-3.4042,-3.4082,-3.4056,-3.4059,-3.4091,-3.4133,-3.4139,-3.4144,-3.4203,-3.4216,-3.4226,0,0,0,0,0,0,-3.4131,-3.4109,-3.4089,-3.413,-3.4128,-3.4111,-3.4135,-3.411,-3.4116,-3.411,-3.4076,-3.4074,-3.4111,-3.4105,-3.4076,-3.4144,-3.4102,-3.4109,-3.4146,-3.4158,-3.4168,-3.4168,-3.4022,0,0,0,0,0,-3.415,-3.4166,-3.4146,-3.4184,-3.4184,-3.416,-3.4167,-3.4147,-3.4143,-3.4142,-3.4131,-3.4129,-3.4141,-3.4149,-3.4159,-3.4207,-3.4203,-3.4231,-3.424,-3.4249,-3.4254,-3.4278,-3.429,-3.4164,-3.4164,-3.4164,0,0,-3.4189,-3.4179,-3.4191,-3.4197,-3.4193,-3.421,-3.416,-3.418,-3.4193,-3.4145,-3.4174,-3.4166,-3.4162,-3.4202,-3.4218,-3.4197,-3.4288,-3.4255,-3.4262,-3.4263,-3.4285,-3.4297,-3.4307,-3.4168,-3.4167,-3.4166,0,0,-3.4268,-3.4262,-3.4293,-3.429,-3.4285,-3.4269,-3.4276,-3.4263,-3.4256,-3.4285,-3.4249,-3.4264,-3.4286,-3.4284,-3.4286,-3.4366,-3.4338,-3.4371,-3.4421,-3.4445,-3.4455,-3.4464,-3.4491,-3.4502,-3.4377,-3.4377,-3.4377,0,-3.4316,-3.434,-3.4312,-3.4335,-3.4338,-3.4296,-3.4327,-3.4326,-3.4325,-3.4328,-3.4305,-3.4331,-3.4325,-3.4364,-3.4383,-3.4387,-3.4394,-3.4371,-3.4456,-3.4464,-3.4472,-3.4498,-3.4508,-3.4381,-3.438,-3.438,-3.4379,0,-3.44,-3.4418,-3.4444,-3.4443,-3.4449,-3.4476,-3.4452,-3.4463,-3.4442,-3.4429,-3.4459,-3.4451,-3.4458,-3.4466,-3.4447,-3.4502,-3.4489,-3.4462,-3.4419,-3.4488,-3.4512,-3.4522,-3.4386,-3.4385,-3.4384,-3.4383,0,0,-3.4517,-3.4501,-3.4511,-3.451,-3.4501,-3.4514,-3.454,-3.4547,-3.4556,-3.4558,-3.4577,-3.4598,-3.4572,-3.4574,-3.4555,-3.4576,-3.4639,-3.4545,-3.4545,-3.4562,-3.4698,-3.4718,-3.473,-3.4621,-3.4623,-3.4624,-3.4698,0,-3.4592,-3.4633,-3.4609,-3.4654,-3.4669,-3.4631,-3.4653,-3.4651,-3.4639,-3.4651,-3.4639,-3.4653,-3.4619,-3.462,-3.464,-3.4627,-3.4665,-3.4622,-3.4639,-3.464,-3.4639,-3.4742,-3.4763,-3.4833,-3.4708,-3.4709,-3.471,0,-3.4684,-3.4688,-3.4735,-3.4724,-3.4729,-3.475,-3.4754,-3.4767,-3.4763,-3.4754,-3.4757,-3.4732,-3.4757,-3.4717,-3.475,-3.472,-3.4726,-3.4722,-3.4724,-3.4723,-3.4678,-3.4743,-3.4855,-3.4865,-3.4725,-3.4724,-3.4723,0,-3.4762,-3.4781,-3.4811,-3.4811,-3.4799,-3.4814,-3.481,-3.4805,-3.4811,-3.4816,-3.4819,-3.4827,-3.4831,-3.4838,-3.4816,-3.4789,-3.4852,-3.481,-3.4844,-3.4844,-3.4857,-3.4856,-3.497,-3.4864,-3.4864,-3.4864,-3.4864,0,-3.4847,-3.4877,-3.4846,-3.4864,-3.4897,-3.4869,-3.4902,-3.4894,-3.489,-3.4906,-3.4874,-3.489,-3.4861,-3.4874,-3.4858,-3.4887,-3.489,-3.4882,-3.4877,-3.4884,-3.4885,-3.4886,-3.488,-3.4866,-3.4866,-3.4865,-3.4865,0,-3.494,-3.492,-3.495,-3.4937,-3.4934,-3.4959,-3.4947,-3.4964,-3.4951,-3.4972,-3.4976,-3.4955,-3.4969,-3.4949,-3.4961,-3.495,-3.499,-3.4978,-3.4991,-3.4987,-3.5021,-3.5018,-3.5139,-3.5153,-3.5039,-3.504,-3.5041,0,-3.4994,-3.5016,-3.5005,-3.5014,-3.5011,-3.5026,-3.5032,-3.5006,-3.5014,-3.5012,-3.5029,-3.504,-3.5048,-3.5072,-3.5059,-3.5068,-3.5055,-3.5097,-3.5056,-3.5063,-3.5054,-3.5053,-3.5054,-3.5105,-3.5106,-3.5108,-3.5109,0,-3.5093,-3.5082,-3.5092,-3.5099,-3.5107,-3.5111,-3.5113,-3.5122,-3.5095,-3.5105,-3.5119,-3.5125,-3.5137,-3.5149,-3.5154,-3.515,-3.5125,-3.5122,-3.513,-3.5136,-3.5142,-3.5138,-3.5012,-3.5119,-3.5118,-3.5117,-3.5116,-3.5116,-3.5167,-3.5185,-3.518,-3.5192,-3.519,-3.5193,-3.5208,-3.5197,-3.5208,-3.5215,-3.52,-3.5218,-3.5215,-3.522,-3.5219,-3.5232,-3.5214,-3.5226,-3.5229,-3.5232,-3.5237,-3.5142,-3.5234,-3.5233,-3.5233,-3.5233,-3.5233,0,-3.5263,-3.5258,-3.5269,-3.5273,-3.5282,-3.5258,-3.5259,-3.5269,-3.5285,-3.5284,-3.5292,-3.5308,-3.5319,-3.5307,-3.5316,-3.533,-3.5318,-3.5333,-3.5331,-3.533,-3.5253,-3.5245,-3.5342,-3.5342,-3.5342,-3.5342,-3.5342,-3.5342,-3.5314,-3.5342,-3.5331,-3.5359,-3.5354,-3.537,-3.5373,-3.5375,-3.5374,-3.5393,-3.5403,-3.5395,-3.5389,-3.5398,-3.5408,-3.5404,-3.5408,-3.5426,-3.5419,-3.5346,-3.5336,-3.5325,-3.5317,-3.5428,-3.5428,-3.5494,-3.5495,-3.5495]},{"header":{"parameterUnit":"m.s-1","parameterCategory":1,"la1":30.2991,"la2":30.254,"lo1":-89.0895,"lo2":-89.0444,"dy":0.0017,"dx":0.0017,"nx":28,"ny":28,"refTime":"2024-05-15T21:00:00:Z","depth":0,"parameterNumber":3,"parameterNumberName":"V-component_of_WINDS"},"data":[0,0,0,0,0,0,0,0,0,0,0,0,0,0,0,0,0,0,0,0,0,0,0,0,0,0,0,0,0,0,0,0,0,0,0,0,0,0,0,0,0,0,0,0,0,0,0,0,0,0,0,0,0,0,0,0,0,0,2.9639,2.9639,0,2.9689,2.9689,2.969,2.9699,2.9698,2.9698,2.9698,2.9745,2.9747,2.9749,0,0,0,0,0,0,0,0,0,0,0,0,0,2.9549,2.9551,2.9639,2.9639,2.964,2.9689,2.9689,2.969,2.9699,2.9698,2.9698,2.9697,2.9745,2.9747,2.9749,0,0,0,0,0,0,0,0,0,0,0,0,0,2.9592,2.9551,2.9639,2.965,2.9652,2.9689,2.9689,2.969,2.9699,2.9698,2.9698,2.9697,2.9744,2.9747,2.9749,2.9776,0,0,2.9757,2.9758,0,0,0,0,0,0,0,0,2.959,2.9596,2.9648,2.965,2.9652,2.9687,2.9675,2.9719,2.9699,2.9681,2.9698,2.9697,2.9726,2.973,2.9741,2.9779,2.9781,2.9757,2.9758,2.9759,2.976,0,0,0,0,0,0,0,2.9587,2.9594,2.9659,2.9649,2.9651,2.9653,2.9658,2.9684,2.9706,2.9683,2.9683,2.9689,2.9727,2.9738,2.9742,2.9781,2.9757,2.9759,2.9761,2.9761,2.9846,2.9847,0,0,0,0,0,0,2.9582,2.9591,2.9657,2.966,2.9619,2.9655,2.9661,2.9676,2.9706,2.971,2.969,2.969,2.9734,2.9739,2.9744,2.9779,2.9759,2.9762,2.9763,2.9845,2.9846,2.9847,0,0,0,0,0,0,2.958,2.9588,2.9655,2.9626,2.9635,2.9657,2.9674,2.9678,2.9689,2.9712,2.9715,2.9697,2.9734,2.974,2.9769,2.9781,2.9763,2.9765,2.9844,2.9846,2.9847,2.9849,0,0,0,0,0,0,2.9578,2.9587,2.9598,2.9626,2.9636,2.968,2.9675,2.9679,2.9694,2.9694,2.972,2.9723,2.9734,2.9765,2.9771,2.9784,2.9767,2.9843,2.9845,2.9846,2.9848,2.985,2.9852,0,0,0,0,0,2.9574,2.9596,2.9599,2.9607,2.965,2.9681,2.9686,2.9699,2.9694,2.9706,2.972,2.9723,2.9778,2.9768,2.9775,2.9788,2.9843,2.9845,2.9846,2.9847,2.985,2.9852,0,0,0,0,0,0,2.9567,2.96,2.9603,2.9634,2.9655,2.9682,2.9696,2.9701,2.9722,2.9721,2.9736,2.9741,2.977,2.9782,2.977,2.9817,2.981,2.9813,2.9808,2.9811,2.9813,2.981,2.9769,0,0,0,0,0,2.9569,2.9592,2.9619,2.9644,2.9654,2.9673,2.9687,2.9695,2.9717,2.9725,2.9742,2.9762,2.9784,2.9798,2.982,2.985,2.9856,2.9863,2.9864,2.9866,2.9869,2.9887,2.989,2.9853,2.9853,2.9853,0,0,2.9574,2.9594,2.9607,2.9643,2.966,2.9683,2.9681,2.9704,2.9721,2.9728,2.9757,2.977,2.9793,2.9823,2.9837,2.9834,2.9881,2.9868,2.9869,2.9871,2.9889,2.9893,2.9896,2.9854,2.9854,2.9854,0,0,2.9594,2.9611,2.9635,2.9652,2.9679,2.9692,2.9697,2.9724,2.9734,2.9763,2.977,2.979,2.9827,2.9844,2.9857,2.9886,2.9889,2.9892,2.9902,2.992,2.9923,2.9926,2.9937,2.9941,2.9895,2.9895,2.9895,0,2.9596,2.9631,2.9646,2.967,2.9686,2.9695,2.9719,2.9735,2.9766,2.9777,2.9773,2.9822,2.9838,2.9873,2.988,2.989,2.9897,2.9889,2.9922,2.9925,2.9927,2.9938,2.9942,2.9895,2.9895,2.9895,2.9895,0,2.9633,2.9657,2.9673,2.9705,2.9722,2.9746,2.9765,2.978,2.9787,2.9801,2.9831,2.9851,2.9878,2.9886,2.9893,2.9923,2.992,2.9919,2.9912,2.9931,2.9941,2.9945,2.9896,2.9895,2.9895,2.9895,0,0,2.9648,2.969,2.9696,2.9711,2.9742,2.9761,2.9785,2.9812,2.9826,2.9848,2.9869,2.9901,2.9901,2.9916,2.9925,2.994,2.9963,2.9937,2.9938,2.9942,2.9998,3.0,3.0004,2.9965,2.9966,2.9967,2.9997,0,2.9673,2.9718,2.9733,2.9771,2.9794,2.9804,2.9825,2.9846,2.986,2.9881,2.9895,2.9919,2.9916,2.9926,2.9941,2.9957,2.9975,2.9955,2.9985,2.9986,2.998,3.0009,3.001,3.0038,3.0001,3.0001,3.0002,0,2.9707,2.9731,2.9772,2.9801,2.9811,2.9831,2.9858,2.9878,2.9902,2.9911,2.9929,2.9937,2.9963,2.9955,2.9991,2.9977,2.999,3.0,3.0001,3.0005,2.9995,3.0014,3.0046,3.0051,3.0008,3.0008,3.0007,0,2.9716,2.9758,2.9789,2.9801,2.9836,2.9849,2.9864,2.9888,2.9904,2.9927,2.9938,2.9963,2.9977,2.9997,3.0011,3.0004,3.0047,3.0039,3.0055,3.0055,3.0064,3.0063,3.0099,3.0071,3.0071,3.0071,3.0071,0,2.9742,2.9766,2.9794,2.9812,2.984,2.9857,2.9884,2.9899,2.992,2.9942,2.9951,2.9971,2.9989,3.0011,3.0022,3.0051,3.0057,3.0065,3.0068,3.0065,3.0064,3.0074,3.0072,3.0072,3.0072,3.0071,3.0071,0,2.9757,2.9776,2.9809,2.984,2.9848,2.9868,2.9894,2.9912,2.9927,2.9954,2.9961,2.9983,3.001,3.0027,3.006,3.0068,3.01,3.0102,3.0092,3.0094,3.0109,3.0108,3.0153,3.016,3.0127,3.0127,3.0127,0,2.9772,2.9792,2.9825,2.9841,2.9857,2.9881,2.9899,2.9916,2.9933,2.9963,2.9978,3.0006,3.0029,3.0071,3.009,3.0116,3.0119,3.0133,3.0123,3.0119,3.012,3.0119,3.0122,3.0135,3.0135,3.0135,3.0135,0,2.9798,2.9807,2.9832,2.9861,2.9882,2.9905,2.9928,2.994,2.9961,2.998,3.0008,3.0027,3.0062,3.0089,3.0117,3.0132,3.0137,3.0139,3.0144,3.0141,3.0135,3.014,3.0098,3.0137,3.0137,3.0137,3.0137,3.0137,2.9815,2.9833,2.986,2.9888,2.9908,2.9929,2.9949,2.9966,2.9991,3.0022,3.003,3.006,3.0085,3.0123,3.0139,3.0162,3.016,3.0167,3.0169,3.0171,3.0172,3.0131,3.0167,3.0167,3.0167,3.0167,3.0167,0,2.9842,2.9861,2.9886,2.9919,2.9941,2.9946,2.9972,2.999,3.0016,3.0039,3.0063,3.0096,3.0123,3.0145,3.0173,3.0187,3.0191,3.0194,3.0194,3.0197,3.0171,3.0165,3.0191,3.0191,3.0191,3.0191,3.0191,3.0191,2.9859,2.9891,2.9904,2.9946,2.9964,2.9994,3.0009,3.0029,3.0048,3.0085,3.0108,3.0123,3.0145,3.0175,3.0201,3.0206,3.0216,3.022,3.0226,3.0201,3.0199,3.0196,3.019,3.0221,3.0222,3.025,3.025,3.025]}]]